DECAYED

STARLINK-1903, 46764 (Decayed)

Orbit data source: Space-Track

STARLINK-1903, 46764 was a payload satellite owned by SpaceX/Seattle (US) in LEO that was launched on Sat, 24 Oct 2020 UTC via an FALCON 9 launch vehicle from the Air Force Eastern Test Range (AFETR). Payload-class satellites include a variety of spacecraft equipped with specific instruments for various scientific and technological missions. These include communications satellites like Starlink; space stations such as the ISS; scientific satellites like the Hubble; Earth observation satellites from companies like Planet Labs, Umbra, and HawkEye 360; GPS; miniature CubeSats for education and research; and military/defense satellites.

Not visible in the next 10 days
Identifier
46764, 2020-074AB
Orbit
Decayed
Country
Flag of USUS
Related business
Manufacturer
SpaceX/Seattle
Mission
Decayed Commercial Communications
Bus & Motor
STARLINK, Unknown motor
Mass
260 kg wet, ~248 kg dry
Launch date (UTC)
2020-10-24 (5 years ago)
Launch vehicle
FALCON 9
Launch site
Air Force Eastern Test Range (AFETR)
Object type
Payload
Rocket body
Debris
Shape & HBR
Box + 1 Pan, 10.1 m
Radar Cross Section
13.562 m², Large (>1 m²)

Expand to show TLE details & history
Last TLE update: 3 months ago

TLE from 3 months ago
0 STARLINK-1903
1 46764U 20074AB  25318.36882894  .06446089  12255-4  93897-3 0  9992
2 46764  52.9944  22.0462 0005756 324.9002  35.1661 16.33816165280654
Epoch: 2025-11-14T08:51Z
TLE epoch observation values (Epoch: 2025-11-14T08:51:06.820Z)
Latitude
-0.00004°
Longitude
-164.44556°
Altitude
180.139 km
Speed
7.801 km/s
True Right ascension
01h 28m 11s
True Declination
0° 00' 00"
Sunlit
Object was in full shadow at epoch
Visualization orbit readout
Latitude
Unknown
Longitude
Unknown
Altitude
Unknown
Speed
Unknown
Apparent Right ascension
Unknown
Apparent Declination
Unknown
Sunlit
N/A
Visualization observer readout
Local Sidereal Time
04:28:46
Azimuth
Unknown
Elevation
Unknown
Doppler factor
Unknown
Orbital elements
Apogee altitude
186.376 km
Perigee altitude
178.823 km
Semi-major axis
6,560.737 km
Eccentricity
0.00058
Inclination
52.9944°
RAAN
22.0462°
Arg. of periapsis
324.9002°
True anomaly
35.20411°
Mean anomaly
35.1661°
Eccentric anomaly
35.1851°
Mean motion
4.08427 °/min
Orbital period
88.14 mins
BSTAR
0.00093897
Loading maneuver chart data...
Computing Atmospheric mass density...
Loading historical data...
Loading historical data...
Loading historical data...
Loading historical data...
Loading historical data...
Loading historical data...
Loading historical data...

Documentation

Showing up to 5 results
|